Cortez, CO

10:24 AM MST on December 12, 2019 (GMT -0700)
Cortez Municipal

Weather History for KCEZ - October, 2019

Change the Weather History Date:

Tuesday, October 15, 2019

  Actual Average Record
Temperature  
Mean Temperature 48 °F 49 °F  
Max Temperature 72 °F 66 °F 80 °F (2015)
Min Temperature 26 °F 32 °F 18 °F (2017)
Degree Days  
Heating Degree Days 16 16  
Month to date heating degree days 202  
Since 1 July heating degree days 374  
Cooling Degree Days 0 0  
Month to date cooling degree days 0  
Year to date cooling degree days 426  
Moisture  
Dew Point 13 °F    
Average Humidity 32    
Maximum Humidity 56    
Minimum Humidity 9    
Precipitation  
Precipitation 0.00 in 0.04 in 0.00 in (2019)
Month to date precipitation 0.76  
Year to date precipitation 10.98  
Sea Level Pressure  
Sea Level Pressure 30.15 in    
Wind  
Wind Speed 7 mph (NE)    
Max Wind Speed 16 mph    
Max Gust Speed 23 mph    
Visibility 10 miles    
Events      
T = Trace of Precipitation, MM = Missing Value Source: NWS Daily Summary

Daily Weather History Graph

Daily Weather History Graph

Search for Another Location

Airport or City:

Astronomy

Oct. 15, 2019 Rise Set
Actual Time 7:22 AM MDT 6:37 PM MDT
Civil Twilight 6:56 AM MDT 7:03 PM MDT
Nautical Twilight 6:25 AM MDT 7:34 PM MDT
Astronomical Twilight 5:55 AM MDT 8:04 PM MDT
Moon 8:01 PM MDT (10/15) 8:54 AM MDT (10/15)
Length of Visible Light 12h 07m
Length of Day
11h 15m
Full, 97% of the Moon is Illuminated
Oct 15
Full
Oct 21
Last Quarter
Oct 27
New
Nov 4
First Quarter
Nov 12
Full

Hourly Weather History & Observations

Time (MDT) Temp. Windchill Dew Point Humidity Pressure Visibility Wind Dir Wind Speed Gust Speed Precip Events Conditions
12:53 AM 33.1 °F 26.9 °F 16.0 °F 50% 30.06 in 10.0 mi East 6.9 mph - N/A   Clear
1:53 AM 30.9 °F 25.2 °F 15.1 °F 52% 30.07 in 10.0 mi ENE 5.8 mph - N/A   Clear
2:53 AM 28.9 °F 20.4 °F 15.1 °F 56% 30.09 in 10.0 mi ENE 9.2 mph - N/A   Clear
3:53 AM 28.9 °F 22.8 °F 15.1 °F 56% 30.11 in 10.0 mi East 5.8 mph - N/A   Clear
4:53 AM 27.0 °F 19.5 °F 12.9 °F 56% 30.13 in 10.0 mi NE 6.9 mph - N/A   Clear
5:53 AM 27.0 °F 19.5 °F 12.9 °F 56% 30.16 in 10.0 mi ENE 6.9 mph - N/A   Clear
6:53 AM 26.1 °F 20.5 °F 12.0 °F 55% 30.22 in 10.0 mi ENE 4.6 mph - N/A   Clear
7:53 AM 27.0 °F 23.0 °F 12.9 °F 56% 30.25 in 10.0 mi East 3.5 mph - N/A   Clear
8:53 AM 37.9 °F - 17.1 °F 43% 30.22 in 10.0 mi Calm Calm - N/A   Clear
9:53 AM 51.1 °F - 19.0 °F 28% 30.19 in 10.0 mi SSW 3.5 mph - N/A   Clear
10:53 AM 63.0 °F - 15.1 °F 16% 30.14 in 10.0 mi Variable 3.5 mph - N/A   Clear
11:53 AM 68.0 °F - 16.0 °F 14% 30.12 in 10.0 mi North - - N/A   Clear
12:53 PM 69.1 °F - 16.0 °F 13% 30.12 in 10.0 mi West 10.4 mph 18.4 mph N/A   Clear
1:53 PM 71.1 °F - 16.0 °F 12% 30.11 in 10.0 mi West 13.8 mph - N/A   Clear
2:53 PM 71.1 °F - 14.0 °F 11% 30.11 in 10.0 mi West 12.7 mph 21.9 mph N/A   Clear
3:53 PM 71.1 °F - 14.0 °F 11% 30.10 in 10.0 mi West 13.8 mph - N/A   Clear
4:53 PM 71.1 °F - 10.0 °F 9% 30.12 in 10.0 mi NW 16.1 mph 23.0 mph N/A   Clear
5:53 PM 69.1 °F - 7.0 °F 9% 30.12 in 10.0 mi NW 10.4 mph - N/A   Clear
6:53 PM 61.0 °F - 12.9 °F 15% 30.16 in 10.0 mi Calm Calm - N/A   Clear
7:53 PM 44.1 °F 42.5 °F 12.9 °F 28% 30.24 in 10.0 mi ENE 3.5 mph - N/A   Clear
8:53 PM 42.1 °F 37.1 °F 10.0 °F 27% 30.23 in 10.0 mi ENE 8.1 mph - N/A   Clear
9:53 PM 39.0 °F 33.4 °F 8.1 °F 28% 30.20 in 10.0 mi NE 8.1 mph - N/A   Clear
10:53 PM 37.0 °F - 9.0 °F 31% 30.19 in 10.0 mi Calm Calm - N/A   Clear
11:53 PM 36.0 °F 30.3 °F 9.0 °F 33% 30.18 in 10.0 mi ENE 6.9 mph - N/A   Clear